VIASAT-2

Last updated on Sun Apr 12 2026 00:02:54 GMT+0000 (Coordinated Universal Time)

1 42740U 17029A 26101.16433698 -.00000264 00000+0 00000+0 0 9997 2 42740 0.0201 260.0332 0000482 142.8486 145.7695 1.00271743 32530
UTC large
Height (km)
Speed (km/s)
/
Latitude / Longitude
Inclination (degrees)
Orbital Period (minutes)
Azimuth
Elevation
Range (km)
Doppler Factor

Next 0 passes for location: London (51.5072 / 0.1276)

Sorry there are no passes over London.
VIASAT-2